INMARSAT GX5

Last updated on Thu Sep 10 2026 00:03:00 GMT+0000 (Coordinated Universal Time)

1 44801U 19080B 26252.58774166 .00000000 00000+0 00000+0 0 9994 2 44801 0.0141 32.1231 0002354 152.3931 26.7414 1.00272251 7635
UTC large
Height (km)
Speed (km/s)
/
Latitude / Longitude
Inclination (degrees)
Orbital Period (minutes)
Azimuth
Elevation
Range (km)
Doppler Factor

Next 0 passes for location: London (51.5072 / 0.1276)

No passes found over London.
INMARSAT GX5